User: anonymous   Login
Location: Nirvana
(45.0297°N, 77.2628°W)
Time: 05:42:41
(UTC-04:00)
Language:

H-2A R/B - Orbit

View from above orbital plane
View from above orbital plane
View from above satellite
View from above satellite

Ground track
Ground track

The orbit data is extracted from the following two-line orbital elements,

1 27601U 02056E   16208.25329218  .00000034  00000-0  27831-4 0  9990
2 27601  98.4165 280.6001 0072296 180.3975 247.4709 14.31725190711170
Epoch (UTC): 26 July 2016 06:04:44
Eccentricity: 0.0072296
inclination: 98.4165°
perigee height: 734 km
apogee height: 838 km
right ascension of ascending node: 280.6001°
argument of perigee: 180.3975°
revolutions per day: 14.31725190
mean anomaly at epoch: 247.4709°
orbit number at epoch: 71117

The dashed part of the orbit path shows where the satellite is in the earth's shadow,  

DLR